(°C)
14°
14°
14°
14°
13°
13°
12°
(°C)
S
S
S
S
S
S
SSE
(km/h)
13-34
13-34
12-33
11-30
9-26
7-22
6-17
(mm)
0
0
0
0
0
0
0
(%)
2
8
9
9
16
4
23

Elevazione del sole

/ 43.1°
sun-icon
UV 4
03:12
20:07
Luna calante (315°)
02:11
15:18

METAR per 55.61°N 49.28°E (UWKD)

Ora Condizioni Temperatura/
Punto di rugiada
Vento Visibilità Meteo Nuvole Pressione Cambiamento Grezzo
VFR 14°C / 0°C 230º 10kt >10km - Clouds and Visibility OK 1011 No Significant change UWKD 261100Z 23005MPS CAVOK 14/M00 Q1011 R29/70D NOSIG RMK QFE747/0996
VFR 14°C / 0°C 230º 10kt >10km - Clouds and Visibility OK 1011 No Significant change UWKD 261030Z 23005MPS CAVOK 14/M00 Q1011 R29/CLRD70 NOSIG RMK QFE747/0996
VFR 13°C / -1°C 230º variable 200º to 260º 8kt >10km - Clouds and Visibility OK 1011 No Significant change UWKD 261000Z 23004MPS 200V260 CAVOK 13/M01 Q1011 R29/70D NOSIG RMK QFE747/0996
VFR 14°C / 1°C 230º variable 180º to 250º 10kt >10km - Clouds and Visibility OK 1011 No Significant change UWKD 260930Z 23005MPS 180V250 CAVOK 14/01 Q1011 R29/CLRD70 NOSIG RMK QFE747/0996
VFR 14°C / 0°C 230º variable 180º to 260º 10kt >10km - Clouds and Visibility OK 1011 No Significant change UWKD 260900Z 23005MPS 180V260 CAVOK 14/00 Q1011 R29/70D NOSIG RMK QFE747/0996
VFR 12°C / -1°C 230º 12kt >10km - Clouds and Visibility OK 1011 No Significant change UWKD 260830Z 23006MPS CAVOK 12/M01 Q1011 R29/70D NOSIG RMK QFE747/0996
VFR 14°C / 0°C 220º variable 190º to 250º 14kt >10km - Clouds and Visibility OK 1011 No Significant change UWKD 260800Z 22007MPS 190V250 CAVOK 14/00 Q1011 R29/70D NOSIG RMK QFE747/0996
VFR 13°C / 1°C 210º variable 180º to 240º 12kt >10km - Clouds and Visibility OK 1011 No Significant change UWKD 260730Z 21006MPS 180V240 CAVOK 13/01 Q1011 R29/70D NOSIG RMK QFE747/0996
VFR 13°C / 0°C 230º variable 190º to 270º 10kt >10km - Clouds and Visibility OK 1011 No Significant change UWKD 260700Z 23005MPS 190V270 CAVOK 13/00 Q1011 R29/70D NOSIG RMK QFE747/0996
VFR 13°C / 2°C 230º variable 200º to 260º 12kt >10km - Clouds and Visibility OK 1011 No Significant change UWKD 260630Z 23006MPS 200V260 CAVOK 13/02 Q1011 R29/70D NOSIG RMK QFE747/0996
VFR 12°C / 2°C 230º variable 180º to 260º 10kt >10km - Scattered Clouds 4200ft 1011 No Significant change UWKD 260600Z 23005MPS 180V260 9999 SCT042 12/02 Q1011 R29/CLRD70 NOSIG RMK QFE747/0997
VFR 11°C / 2°C 220º variable 190º to 260º 8kt >10km - Clouds and Visibility OK 1011 No Significant change UWKD 260530Z 22004MPS 190V260 CAVOK 11/02 Q1011 R29/70D NOSIG RMK QFE747/0997
VFR 11°C / 2°C 210º 8kt >10km - Clouds and Visibility OK 1011 No Significant change UWKD 260500Z 21004MPS CAVOK 11/02 Q1011 R29/CLRD70 NOSIG RMK QFE747/0997
VFR 10°C / 2°C 200º variable 150º to 240º 6kt >10km - Clouds and Visibility OK 1011 No Significant change UWKD 260430Z 20003MPS 150V240 CAVOK 10/02 Q1011 R29/70D NOSIG RMK QFE747/0997
VFR 10°C / 2°C 230º variable 180º to 280º 6kt >10km - Clouds and Visibility OK 1011 No Significant change UWKD 260400Z 23003MPS 180V280 CAVOK 10/02 Q1011 R29/CLRD70 NOSIG RMK QFE747/0997
VFR 8°C / 2°C 250º 4kt >10km - Clouds and Visibility OK 1011 No Significant change UWKD 260330Z 25002MPS CAVOK 08/02 Q1011 R29/CLRD70 NOSIG RMK QFE747/0997
VFR 8°C / 3°C 240º variable 210º to 270º 6kt >10km - Clouds and Visibility OK 1011 No Significant change UWKD 260300Z 24003MPS 210V270 CAVOK 08/03 Q1011 R29/CLRD70 NOSIG RMK QFE747/0996
VFR 7°C / 3°C 240º variable 200º to 260º 6kt >10km - Clouds and Visibility OK 1011 No Significant change UWKD 260230Z 24003MPS 200V260 CAVOK 07/03 Q1011 R29/CLRD70 NOSIG RMK QFE747/0996
VFR 6°C / 2°C 230º variable 200º to 260º 6kt >10km - Clouds and Visibility OK 1011 No Significant change UWKD 260200Z 23003MPS 200V260 CAVOK 06/02 Q1011 R29/CLRD70 NOSIG RMK QFE747/0996
VFR 6°C / 2°C 230º variable 200º to 260º 6kt >10km - Clouds and Visibility OK 1011 No Significant change UWKD 260130Z 23003MPS 200V260 CAVOK 06/02 Q1011 R29/70D NOSIG RMK QFE747/0996
VFR 5°C / 2°C 240º 8kt >10km - Clouds and Visibility OK 1011 No Significant change UWKD 260100Z 24004MPS CAVOK 05/02 Q1011 R29/CLRD70 NOSIG RMK QFE747/0996
VFR 6°C / 2°C variable 2kt >10km - Clouds and Visibility OK 1011 No Significant change UWKD 260030Z VRB01MPS CAVOK 06/02 Q1011 R29/CLRD70 NOSIG RMK QFE747/0996
VFR 6°C / 2°C variable 2kt >10km - Broken Clouds 3600ft 1011 No Significant change UWKD 260000Z VRB01MPS 9999 BKN036 06/02 Q1011 R29/CLRD70 NOSIG RMK QFE747/0996
VFR 6°C / 2°C 240º variable 210º to 270º 4kt >10km - Broken Clouds 4300ft 1011 No Significant change UWKD 252330Z 24002MPS 210V270 9999 BKN043 06/02 Q1011 R29/CLRD70 NOSIG RMK QFE747/0996

VFR

14°C / 0°C

[Più]
Vento 230º 10kt
Visibilità >10km
Meteo -
Nuvole Clouds and Visibility OK
Pressione 1011
Cambiamento No Significant change
Grezzo UWKD 261100Z 23005MPS CAVOK 14/M00 Q1011 R29/70D NOSIG RMK QFE747/0996

VFR

14°C / 0°C

[Più]
Vento 230º 10kt
Visibilità >10km
Meteo -
Nuvole Clouds and Visibility OK
Pressione 1011
Cambiamento No Significant change
Grezzo UWKD 261030Z 23005MPS CAVOK 14/M00 Q1011 R29/CLRD70 NOSIG RMK QFE747/0996

VFR

13°C / -1°C

[Più]
Vento 230º variable 200º to 260º 8kt
Visibilità >10km
Meteo -
Nuvole Clouds and Visibility OK
Pressione 1011
Cambiamento No Significant change
Grezzo UWKD 261000Z 23004MPS 200V260 CAVOK 13/M01 Q1011 R29/70D NOSIG RMK QFE747/0996

VFR

14°C / 1°C

[Più]
Vento 230º variable 180º to 250º 10kt
Visibilità >10km
Meteo -
Nuvole Clouds and Visibility OK
Pressione 1011
Cambiamento No Significant change
Grezzo UWKD 260930Z 23005MPS 180V250 CAVOK 14/01 Q1011 R29/CLRD70 NOSIG RMK QFE747/0996

VFR

14°C / 0°C

[Più]
Vento 230º variable 180º to 260º 10kt
Visibilità >10km
Meteo -
Nuvole Clouds and Visibility OK
Pressione 1011
Cambiamento No Significant change
Grezzo UWKD 260900Z 23005MPS 180V260 CAVOK 14/00 Q1011 R29/70D NOSIG RMK QFE747/0996

VFR

12°C / -1°C

[Più]
Vento 230º 12kt
Visibilità >10km
Meteo -
Nuvole Clouds and Visibility OK
Pressione 1011
Cambiamento No Significant change
Grezzo UWKD 260830Z 23006MPS CAVOK 12/M01 Q1011 R29/70D NOSIG RMK QFE747/0996

VFR

14°C / 0°C

[Più]
Vento 220º variable 190º to 250º 14kt
Visibilità >10km
Meteo -
Nuvole Clouds and Visibility OK
Pressione 1011
Cambiamento No Significant change
Grezzo UWKD 260800Z 22007MPS 190V250 CAVOK 14/00 Q1011 R29/70D NOSIG RMK QFE747/0996

VFR

13°C / 1°C

[Più]
Vento 210º variable 180º to 240º 12kt
Visibilità >10km
Meteo -
Nuvole Clouds and Visibility OK
Pressione 1011
Cambiamento No Significant change
Grezzo UWKD 260730Z 21006MPS 180V240 CAVOK 13/01 Q1011 R29/70D NOSIG RMK QFE747/0996

VFR

13°C / 0°C

[Più]
Vento 230º variable 190º to 270º 10kt
Visibilità >10km
Meteo -
Nuvole Clouds and Visibility OK
Pressione 1011
Cambiamento No Significant change
Grezzo UWKD 260700Z 23005MPS 190V270 CAVOK 13/00 Q1011 R29/70D NOSIG RMK QFE747/0996

VFR

13°C / 2°C

[Più]
Vento 230º variable 200º to 260º 12kt
Visibilità >10km
Meteo -
Nuvole Clouds and Visibility OK
Pressione 1011
Cambiamento No Significant change
Grezzo UWKD 260630Z 23006MPS 200V260 CAVOK 13/02 Q1011 R29/70D NOSIG RMK QFE747/0996

VFR

12°C / 2°C

[Più]
Vento 230º variable 180º to 260º 10kt
Visibilità >10km
Meteo -
Nuvole Scattered Clouds 4200ft
Pressione 1011
Cambiamento No Significant change
Grezzo UWKD 260600Z 23005MPS 180V260 9999 SCT042 12/02 Q1011 R29/CLRD70 NOSIG RMK QFE747/0997

VFR

11°C / 2°C

[Più]
Vento 220º variable 190º to 260º 8kt
Visibilità >10km
Meteo -
Nuvole Clouds and Visibility OK
Pressione 1011
Cambiamento No Significant change
Grezzo UWKD 260530Z 22004MPS 190V260 CAVOK 11/02 Q1011 R29/70D NOSIG RMK QFE747/0997

VFR

11°C / 2°C

[Più]
Vento 210º 8kt
Visibilità >10km
Meteo -
Nuvole Clouds and Visibility OK
Pressione 1011
Cambiamento No Significant change
Grezzo UWKD 260500Z 21004MPS CAVOK 11/02 Q1011 R29/CLRD70 NOSIG RMK QFE747/0997

VFR

10°C / 2°C

[Più]
Vento 200º variable 150º to 240º 6kt
Visibilità >10km
Meteo -
Nuvole Clouds and Visibility OK
Pressione 1011
Cambiamento No Significant change
Grezzo UWKD 260430Z 20003MPS 150V240 CAVOK 10/02 Q1011 R29/70D NOSIG RMK QFE747/0997

VFR

10°C / 2°C

[Più]
Vento 230º variable 180º to 280º 6kt
Visibilità >10km
Meteo -
Nuvole Clouds and Visibility OK
Pressione 1011
Cambiamento No Significant change
Grezzo UWKD 260400Z 23003MPS 180V280 CAVOK 10/02 Q1011 R29/CLRD70 NOSIG RMK QFE747/0997

VFR

8°C / 2°C

[Più]
Vento 250º 4kt
Visibilità >10km
Meteo -
Nuvole Clouds and Visibility OK
Pressione 1011
Cambiamento No Significant change
Grezzo UWKD 260330Z 25002MPS CAVOK 08/02 Q1011 R29/CLRD70 NOSIG RMK QFE747/0997

VFR

8°C / 3°C

[Più]
Vento 240º variable 210º to 270º 6kt
Visibilità >10km
Meteo -
Nuvole Clouds and Visibility OK
Pressione 1011
Cambiamento No Significant change
Grezzo UWKD 260300Z 24003MPS 210V270 CAVOK 08/03 Q1011 R29/CLRD70 NOSIG RMK QFE747/0996

VFR

7°C / 3°C

[Più]
Vento 240º variable 200º to 260º 6kt
Visibilità >10km
Meteo -
Nuvole Clouds and Visibility OK
Pressione 1011
Cambiamento No Significant change
Grezzo UWKD 260230Z 24003MPS 200V260 CAVOK 07/03 Q1011 R29/CLRD70 NOSIG RMK QFE747/0996

VFR

6°C / 2°C

[Più]
Vento 230º variable 200º to 260º 6kt
Visibilità >10km
Meteo -
Nuvole Clouds and Visibility OK
Pressione 1011
Cambiamento No Significant change
Grezzo UWKD 260200Z 23003MPS 200V260 CAVOK 06/02 Q1011 R29/CLRD70 NOSIG RMK QFE747/0996

VFR

6°C / 2°C

[Più]
Vento 230º variable 200º to 260º 6kt
Visibilità >10km
Meteo -
Nuvole Clouds and Visibility OK
Pressione 1011
Cambiamento No Significant change
Grezzo UWKD 260130Z 23003MPS 200V260 CAVOK 06/02 Q1011 R29/70D NOSIG RMK QFE747/0996

VFR

5°C / 2°C

[Più]
Vento 240º 8kt
Visibilità >10km
Meteo -
Nuvole Clouds and Visibility OK
Pressione 1011
Cambiamento No Significant change
Grezzo UWKD 260100Z 24004MPS CAVOK 05/02 Q1011 R29/CLRD70 NOSIG RMK QFE747/0996

VFR

6°C / 2°C

[Più]
Vento variable 2kt
Visibilità >10km
Meteo -
Nuvole Clouds and Visibility OK
Pressione 1011
Cambiamento No Significant change
Grezzo UWKD 260030Z VRB01MPS CAVOK 06/02 Q1011 R29/CLRD70 NOSIG RMK QFE747/0996

VFR

6°C / 2°C

[Più]
Vento variable 2kt
Visibilità >10km
Meteo -
Nuvole Broken Clouds 3600ft
Pressione 1011
Cambiamento No Significant change
Grezzo UWKD 260000Z VRB01MPS 9999 BKN036 06/02 Q1011 R29/CLRD70 NOSIG RMK QFE747/0996

VFR

6°C / 2°C

[Più]
Vento 240º variable 210º to 270º 4kt
Visibilità >10km
Meteo -
Nuvole Broken Clouds 4300ft
Pressione 1011
Cambiamento No Significant change
Grezzo UWKD 252330Z 24002MPS 210V270 9999 BKN043 06/02 Q1011 R29/CLRD70 NOSIG RMK QFE747/0996

TAF per 55.61°N 49.28°E (UWKD)

From till


Maximum Temperature 14ºC on . Minimum Temperature 5ºC on .
From till Wind 210º 12kt. Gust 25kt. Visibility 10km or more. Overcast 1600ft.
Temporarly from till Visibility 6000m. Light Showers Rain . Broken Clouds 2500ft.
Becoming from till Wind 150º 10kt. Gust 19kt. Visibility 10km or more. Overcast 1600ft.
Becoming from till Wind 150º 16kt. Gust 29kt. Visibility 6000m. Light Rain . Overcast 1600ft.

Grezzo: TAF UWKD 261056Z 2612/2712 21006G13MPS 9999 OVC016 TX14/2612Z TN05/2701Z TEMPO 2612/2618 6000 -SHRA BKN025CB BECMG 2618/2620 15005G10MPS BECMG 2704/2706 15008G15MPS 6000 -RA

Radar e nowcasting per 55.61°N 49.28°E

Pioviggine
Lieve
Moderato
Forte
Molto forte
Grandine

Il segnaposto è situato a 55.61°N 49.28°E. Questa animazione mostra il radar delle precipitazioni per l'ultima ora, nonché una previsione 1h. Una pioviggine o una leggera caduta di neve potrebbero essere invisibili per il radar. L'intensità delle precipitazioni è codificata a colori, dal blu chiaro all'arancione.

Tempo in atto per 55.61°N 49.28°E: immagine satellitare e pioggia

Il segnaposto è situato a 55.61°N 49.28°E. [Più]

L'immagine satellitare in tempo reale combina la luce visibile durante il giorno con la radiazione infrarossa durante la notte. Di notte l'immagine non è scura poiché i raggi infrarossi possono rilevare differenze di temperatura. Purtroppo, le nuvole basse e la nebbia sono difficili da distinguere dalla temperatura del suolo e possono pertanto essere quasi invisibili durante la notte. Le immagini satellitari Meteosat per l'Europa vengono aggiornate in tempo reale ogni 5 minuti. Le immagini GOES-16 / GOES-17 (Nord e Sud America) e Himawari (Asia) vengono aggiornate ogni 10 minuti.

Copyright 2022 EUMETSAT / meteoblue. / Copyright 2022 meteoblue

Tornare su